JTC232 CYVR-KOPF

Flight info

Callsign JTC232
Flight time N/A
Altitude 41000
Route SHUKA J52 TWISP DCT KUBZA DCT UPLOW DCT KUBLF DCT BFF DCT HCT/N0492F450 DCT GOSSL DCT ZALDA DCT CIVKI DCT NMM DCT NAILE DCT BAYNE DCT SABEE CUURT1
Aircraft C750/M-SBDE3FGHRWXY/S

Departure

Time 2026-05-05 20:16
Airport Vancouver International Airport (CYVR)

Arrival

Time N/A
Airport Miami-Opa Locka Executive Airport (KOPF)
Time Latitude Longitude Altitude Speed Heading
2026-05-05 20:03 49.18169 -123.17242 20 ft 0 kts 18°
2026-05-05 20:10 49.18185 -123.17225 19 ft 6 kts 39°
2026-05-05 20:10 49.18241 -123.17186 20 ft 10 kts
2026-05-05 20:11 49.18315 -123.17238 19 ft 12 kts 325°
2026-05-05 20:11 49.18393 -123.17324 19 ft 14 kts 322°
2026-05-05 20:11 49.18431 -123.17440 20 ft 13 kts 280°
2026-05-05 20:11 49.18449 -123.17600 21 ft 16 kts 280°
2026-05-05 20:12 49.18467 -123.17758 20 ft 16 kts 280°
2026-05-05 20:12 49.18489 -123.17950 22 ft 18 kts 280°
2026-05-05 20:12 49.18510 -123.18132 19 ft 17 kts 280°
2026-05-05 20:12 49.18530 -123.18303 18 ft 16 kts 280°
2026-05-05 20:13 49.18552 -123.18498 19 ft 19 kts 279°
2026-05-05 20:13 49.18575 -123.18699 21 ft 20 kts 279°
2026-05-05 20:13 49.18600 -123.18918 19 ft 21 kts 280°
2026-05-05 20:13 49.18625 -123.19135 20 ft 24 kts 280°
2026-05-05 20:14 49.18658 -123.19425 20 ft 30 kts 280°
2026-05-05 20:14 49.18692 -123.19726 21 ft 28 kts 279°
2026-05-05 20:14 49.18726 -123.20014 19 ft 25 kts 279°
2026-05-05 20:14 49.18755 -123.20269 19 ft 23 kts 280°
2026-05-05 20:15 49.18784 -123.20497 20 ft 18 kts 300°
2026-05-05 20:15 49.18887 -123.20518 21 ft 15 kts
2026-05-05 20:15 49.18957 -123.20432 20 ft 12 kts 68°
2026-05-05 20:15 49.18944 -123.20228 22 ft 45 kts 100°
2026-05-05 20:16 49.18833 -123.19256 23 ft 132 kts 100°
2026-05-05 20:16 49.18657 -123.17768 358 ft 150 kts 102°
2026-05-05 20:16 49.18480 -123.16114 741 ft 170 kts 99°
2026-05-05 20:16 49.18265 -123.14209 983 ft 195 kts 110°
2026-05-05 20:17 49.17705 -123.12189 1377 ft 212 kts 116°
2026-05-05 20:17 49.17108 -123.10132 2100 ft 212 kts 116°
2026-05-05 20:17 49.16495 -123.08063 2766 ft 217 kts 117°
2026-05-05 20:17 49.15727 -123.05928 3165 ft 242 kts 121°
2026-05-05 20:18 49.14851 -123.03579 3652 ft 263 kts 119°
2026-05-05 20:18 49.13986 -123.01110 4559 ft 266 kts 118°
2026-05-05 20:18 49.13114 -122.98600 5285 ft 275 kts 118°
2026-05-05 20:18 49.12199 -122.96010 6077 ft 279 kts 119°
2026-05-05 20:19 49.11269 -122.93389 6912 ft 282 kts 118°
2026-05-05 20:19 49.10335 -122.90742 7745 ft 285 kts 118°
2026-05-05 20:19 49.09385 -122.88053 8621 ft 290 kts 118°
2026-05-05 20:19 49.08421 -122.85335 9482 ft 293 kts 117°
2026-05-05 20:20 49.07443 -122.82576 10214 ft 299 kts 117°
2026-05-05 20:20 49.06412 -122.79669 10393 ft 324 kts 117°
2026-05-05 20:20 49.05294 -122.76519 10410 ft 351 kts 117°
2026-05-05 20:20 49.04102 -122.73173 10806 ft 361 kts 117°
2026-05-05 20:21 49.02900 -122.69808 11487 ft 363 kts 117°
2026-05-05 20:21 49.01689 -122.66411 12066 ft 367 kts 117°
2026-05-05 20:21 49.00463 -122.62976 12658 ft 371 kts 117°
2026-05-05 20:21 48.99222 -122.59509 13269 ft 374 kts 116°
2026-05-05 20:22 48.97968 -122.56010 13848 ft 378 kts 116°
2026-05-05 20:22 48.96700 -122.52473 14381 ft 381 kts 116°
2026-05-05 20:22 48.95423 -122.48918 14905 ft 385 kts 116°
2026-05-05 20:22 48.94134 -122.45334 15420 ft 388 kts 116°
2026-05-05 20:23 48.92830 -122.41715 15948 ft 392 kts 116°
2026-05-05 20:23 48.91514 -122.38064 16486 ft 395 kts 115°
2026-05-05 20:23 48.90187 -122.34389 17033 ft 399 kts 115°
2026-05-05 20:23 48.88860 -122.30722 17601 ft 403 kts 115°
2026-05-05 20:24 48.87485 -122.26925 18132 ft 408 kts 115°
2026-05-05 20:24 48.86128 -122.23182 18630 ft 412 kts 115°
2026-05-05 20:24 48.84738 -122.19359 19134 ft 415 kts 115°
2026-05-05 20:24 48.83338 -122.15513 19660 ft 418 kts 115°
2026-05-05 20:25 48.82072 -122.11549 20113 ft 418 kts 107°
2026-05-05 20:25 48.81054 -122.07405 20655 ft 421 kts 106°
2026-05-05 20:25 48.79995 -122.03236 21180 ft 425 kts 107°
2026-05-05 20:25 48.78901 -121.99047 21723 ft 429 kts 107°
2026-05-05 20:26 48.77813 -121.94811 22273 ft 432 kts 107°
2026-05-05 20:26 48.76732 -121.90531 22807 ft 436 kts 106°
2026-05-05 20:26 48.75631 -121.86216 23325 ft 442 kts 107°
2026-05-05 20:26 48.74505 -121.81861 23820 ft 446 kts 107°
2026-05-05 20:27 48.73368 -121.77470 24243 ft 450 kts 107°
2026-05-05 20:27 48.72228 -121.73042 24712 ft 452 kts 107°
2026-05-05 20:27 48.71085 -121.68600 25214 ft 453 kts 107°
2026-05-05 20:27 48.69932 -121.64145 25631 ft 457 kts 107°
2026-05-05 20:28 48.68765 -121.59663 26093 ft 459 kts 107°
2026-05-05 20:28 48.67589 -121.55143 26469 ft 463 kts 107°
2026-05-05 20:28 48.66407 -121.50598 26935 ft 465 kts 107°
2026-05-05 20:28 48.65215 -121.46028 27302 ft 469 kts 107°
2026-05-05 20:29 48.64009 -121.41419 27686 ft 473 kts 107°
2026-05-05 20:29 48.62794 -121.36786 28094 ft 475 kts 108°
2026-05-05 20:29 48.61574 -121.32142 28619 ft 476 kts 108°
2026-05-05 20:29 48.60345 -121.27470 29061 ft 480 kts 108°
2026-05-05 20:30 48.59123 -121.22834 29456 ft 484 kts 107°
2026-05-05 20:30 48.57871 -121.18099 29836 ft 487 kts 108°
2026-05-05 20:30 48.56611 -121.13339 30243 ft 490 kts 108°
2026-05-05 20:30 48.55343 -121.08554 30610 ft 492 kts 108°
2026-05-05 20:31 48.54066 -121.03744 30949 ft 495 kts 108°
2026-05-05 20:31 48.52787 -120.98946 31506 ft 492 kts 108°
2026-05-05 20:31 48.51508 -120.94160 31982 ft 491 kts 108°
2026-05-05 20:31 48.50233 -120.89384 32444 ft 491 kts 108°
2026-05-05 20:32 48.48956 -120.84611 32920 ft 490 kts 108°
2026-05-05 20:32 48.47676 -120.79847 33385 ft 490 kts 108°
2026-05-05 20:32 48.46395 -120.75092 33784 ft 490 kts 107°
2026-05-05 20:32 48.45112 -120.70325 34211 ft 490 kts 107°
2026-05-05 20:33 48.43827 -120.65569 34643 ft 490 kts 107°
2026-05-05 20:33 48.42976 -120.62426 34930 ft 489 kts 107°
2026-05-05 20:33 48.41695 -120.57700 35518 ft 486 kts 107°
2026-05-05 20:33 48.40416 -120.52988 35926 ft 487 kts 107°
2026-05-05 20:34 48.38719 -120.46751 36601 ft 486 kts 107°
2026-05-05 20:34 48.37434 -120.42045 37042 ft 486 kts 107°
2026-05-05 20:34 48.36567 -120.38870 37362 ft 486 kts 106°
2026-05-05 20:34 48.35284 -120.34186 37910 ft 483 kts 106°
2026-05-05 20:35 48.34006 -120.29525 38391 ft 482 kts 106°
2026-05-05 20:35 48.32745 -120.24932 38772 ft 482 kts 107°
2026-05-05 20:35 48.31465 -120.20288 39140 ft 481 kts 106°
2026-05-05 20:35 48.30183 -120.15643 39490 ft 481 kts 107°
2026-05-05 20:36 48.28899 -120.10998 39847 ft 481 kts 106°
2026-05-05 20:36 48.27617 -120.06366 40220 ft 480 kts 107°
2026-05-05 20:36 48.26261 -120.01769 40552 ft 484 kts 110°
2026-05-05 20:36 48.24771 -119.97251 40870 ft 482 kts 111°
2026-05-05 20:37 48.23248 -119.92731 40919 ft 489 kts 111°
2026-05-05 20:37 48.20198 -119.83436 40936 ft 504 kts 110°
2026-05-05 20:38 48.17021 -119.73889 40941 ft 519 kts 111°
2026-05-05 20:38 48.13771 -119.64123 40941 ft 528 kts 111°
2026-05-05 20:39 48.10474 -119.54263 40936 ft 530 kts 111°
2026-05-05 20:39 48.07188 -119.44472 40942 ft 530 kts 111°
2026-05-05 20:40 48.03877 -119.34642 40943 ft 530 kts 111°
2026-05-05 20:40 48.00552 -119.24809 40957 ft 531 kts 111°
2026-05-05 20:41 47.97219 -119.14987 40948 ft 531 kts 111°
2026-05-05 20:41 47.93872 -119.05162 40949 ft 532 kts 111°
2026-05-05 20:42 47.90522 -118.95369 40950 ft 531 kts 111°
2026-05-05 20:42 47.87163 -118.85582 40952 ft 530 kts 111°
2026-05-05 20:43 47.83794 -118.75806 40959 ft 531 kts 111°
2026-05-05 20:43 47.80416 -118.66039 40956 ft 531 kts 111°
2026-05-05 20:44 47.77030 -118.56286 40962 ft 531 kts 111°
2026-05-05 20:44 47.73636 -118.46545 40969 ft 532 kts 111°
2026-05-05 20:45 47.68514 -118.31918 40964 ft 532 kts 111°
2026-05-05 20:45 47.65095 -118.22193 40965 ft 531 kts 111°
2026-05-05 20:46 47.61688 -118.12545 40968 ft 531 kts 112°
2026-05-05 20:46 47.58251 -118.02843 40986 ft 531 kts 112°
2026-05-05 20:47 47.54807 -117.93160 40995 ft 532 kts 112°
2026-05-05 20:47 47.51355 -117.83489 41002 ft 532 kts 112°
2026-05-05 20:48 47.47893 -117.73825 41004 ft 532 kts 112°
2026-05-05 20:48 47.44422 -117.64172 41002 ft 531 kts 112°
2026-05-05 20:49 47.40948 -117.54545 40990 ft 532 kts 112°
2026-05-05 20:49 47.37462 -117.44920 40983 ft 532 kts 112°
2026-05-05 20:50 47.33959 -117.35285 40981 ft 533 kts 112°
2026-05-05 20:50 47.30445 -117.25656 40979 ft 533 kts 112°
2026-05-05 20:51 47.26924 -117.16035 40972 ft 533 kts 112°
2026-05-05 20:51 47.23393 -117.06427 40987 ft 533 kts 112°
2026-05-05 20:52 47.19874 -116.96888 41030 ft 533 kts 112°
2026-05-05 20:52 47.16321 -116.87284 40968 ft 534 kts 112°
2026-05-05 20:53 47.12765 -116.77717 40957 ft 533 kts 112°
2026-05-05 20:53 47.09202 -116.68157 40941 ft 534 kts 113°
2026-05-05 20:54 47.05628 -116.58608 40931 ft 534 kts 113°
2026-05-05 20:54 47.02052 -116.49079 40922 ft 534 kts 113°
2026-05-05 20:55 46.98460 -116.39549 40905 ft 534 kts 113°
2026-05-05 20:55 46.94862 -116.30033 40896 ft 534 kts 113°
2026-05-05 20:56 46.91250 -116.20512 40892 ft 538 kts 113°
2026-05-05 20:56 46.87630 -116.11006 40893 ft 538 kts 113°
2026-05-05 20:57 46.83985 -116.01473 40890 ft 537 kts 113°
2026-05-05 20:57 46.80334 -115.91948 40889 ft 538 kts 113°
2026-05-05 20:58 46.76666 -115.82421 40889 ft 538 kts 113°
2026-05-05 20:58 46.72991 -115.72896 40887 ft 539 kts 113°
2026-05-05 20:59 46.69302 -115.63390 40900 ft 538 kts 113°
2026-05-05 20:59 46.65610 -115.53884 40909 ft 540 kts 114°
2026-05-05 21:00 46.61903 -115.44377 40905 ft 539 kts 113°
2026-05-05 21:00 46.60065 -115.39675 40895 ft 526 kts 113°
2026-05-05 21:00 46.58261 -115.35092 40919 ft 521 kts 113°
2026-05-05 21:01 46.54643 -115.25907 40922 ft 524 kts 113°
2026-05-05 21:01 46.51018 -115.16712 40924 ft 526 kts 114°
2026-05-05 21:02 46.47379 -115.07504 40957 ft 526 kts 114°
2026-05-05 21:02 46.43737 -114.98307 40954 ft 526 kts 114°
2026-05-05 21:03 46.40094 -114.89124 40950 ft 525 kts 114°
2026-05-05 21:03 46.36450 -114.79948 40969 ft 525 kts 114°
2026-05-05 21:04 46.32831 -114.70848 40953 ft 524 kts 114°
2026-05-05 21:04 46.29189 -114.61707 40958 ft 524 kts 114°
2026-05-05 21:05 46.25548 -114.52582 40965 ft 526 kts 114°
2026-05-05 21:05 46.21892 -114.43426 40955 ft 525 kts 114°
2026-05-05 21:06 46.18238 -114.34282 40999 ft 525 kts 114°
2026-05-05 21:06 46.14574 -114.25128 41013 ft 529 kts 114°
2026-05-05 21:07 46.10912 -114.15999 41003 ft 525 kts 114°
2026-05-05 21:07 46.07251 -114.06883 40997 ft 525 kts 114°
2026-05-05 21:08 46.03591 -113.97781 40989 ft 524 kts 114°
2026-05-05 21:08 45.99935 -113.88704 40975 ft 524 kts 114°
2026-05-05 21:09 45.96296 -113.79684 40968 ft 525 kts 114°
2026-05-05 21:09 45.92630 -113.70617 40967 ft 525 kts 114°
2026-05-05 21:10 45.88964 -113.61561 40959 ft 524 kts 114°
2026-05-05 21:10 45.85296 -113.52510 40955 ft 525 kts 114°
2026-05-05 21:11 45.81614 -113.43435 40995 ft 525 kts 114°
2026-05-05 21:11 45.77943 -113.34404 40971 ft 524 kts 114°
2026-05-05 21:12 45.74270 -113.25380 40962 ft 524 kts 115°
2026-05-05 21:12 45.70595 -113.16360 40974 ft 525 kts 115°
2026-05-05 21:13 45.66938 -113.07401 40971 ft 525 kts 115°
2026-05-05 21:13 45.63258 -112.98396 40959 ft 525 kts 115°
2026-05-05 21:14 45.59571 -112.89379 40965 ft 526 kts 115°
2026-05-05 21:14 45.55882 -112.80371 40959 ft 525 kts 115°
2026-05-05 21:15 45.52188 -112.71359 40974 ft 526 kts 115°
2026-05-05 21:15 45.48491 -112.62349 40989 ft 526 kts 116°
2026-05-05 21:16 45.44795 -112.53351 40996 ft 526 kts 116°
2026-05-05 21:16 45.41090 -112.44350 41023 ft 527 kts 116°
2026-05-05 21:17 45.37386 -112.35363 41027 ft 526 kts 116°
2026-05-05 21:17 45.33676 -112.26367 41019 ft 528 kts 116°
2026-05-05 21:18 45.29960 -112.17369 41010 ft 528 kts 116°
2026-05-05 21:18 45.26253 -112.08402 41031 ft 530 kts 116°
2026-05-05 21:19 45.22518 -111.99374 41046 ft 531 kts 116°
2026-05-05 21:19 45.18785 -111.90364 41060 ft 529 kts 116°
2026-05-05 21:20 45.15049 -111.81356 41069 ft 530 kts 116°
2026-05-05 21:20 45.11314 -111.72366 41068 ft 530 kts 116°
2026-05-05 21:21 45.07574 -111.63373 41069 ft 530 kts 117°
2026-05-05 21:21 45.04464 -111.55903 41038 ft 530 kts 117°
2026-05-05 21:22 45.00710 -111.46893 41033 ft 533 kts 117°
2026-05-05 21:22 44.96947 -111.37868 41026 ft 533 kts 117°
2026-05-05 21:23 44.93180 -111.28847 41015 ft 532 kts 117°
2026-05-05 21:23 44.89417 -111.19847 41017 ft 533 kts 117°
2026-05-05 21:24 44.85647 -111.10843 41025 ft 533 kts 117°
2026-05-05 21:24 44.81882 -111.01860 41019 ft 533 kts 117°
2026-05-05 21:25 44.78115 -110.92880 41053 ft 532 kts 117°
2026-05-05 21:25 44.74340 -110.83890 41020 ft 533 kts 117°
2026-05-05 21:26 44.70592 -110.74975 41007 ft 533 kts 118°
2026-05-05 21:26 44.66817 -110.66005 41010 ft 533 kts 118°
2026-05-05 21:27 44.63038 -110.57037 40991 ft 534 kts 118°
2026-05-05 21:27 44.59256 -110.48073 40983 ft 534 kts 118°
2026-05-05 21:28 44.55463 -110.39093 40966 ft 534 kts 118°
2026-05-05 21:28 44.51674 -110.30133 40969 ft 537 kts 118°
2026-05-05 21:29 44.47865 -110.21130 40969 ft 537 kts 118°
2026-05-05 21:29 44.44051 -110.12127 40967 ft 537 kts 118°
2026-05-05 21:30 44.40262 -110.03193 40965 ft 538 kts 118°
2026-05-05 21:30 44.36431 -109.94166 40979 ft 538 kts 118°
2026-05-05 21:31 44.32612 -109.85182 40995 ft 537 kts 118°
2026-05-05 21:31 44.28790 -109.76204 41044 ft 538 kts 119°
2026-05-05 21:32 44.24970 -109.67238 41033 ft 536 kts 119°
2026-05-05 21:32 44.21172 -109.58329 41026 ft 538 kts 119°
2026-05-05 21:33 44.17347 -109.49369 41071 ft 538 kts 119°
2026-05-05 21:33 44.13518 -109.40414 41072 ft 537 kts 119°
2026-05-05 21:34 44.09689 -109.31466 41067 ft 538 kts 120°
2026-05-05 21:34 44.05858 -109.22522 41088 ft 538 kts 120°
2026-05-05 21:35 44.02022 -109.13576 41103 ft 538 kts 120°
2026-05-05 21:35 43.98214 -109.04705 41100 ft 538 kts 120°
2026-05-05 21:36 43.94374 -108.95768 41099 ft 540 kts 120°
2026-05-05 21:36 43.90531 -108.86834 41088 ft 539 kts 120°
2026-05-05 21:37 43.86691 -108.77915 41079 ft 539 kts 120°
2026-05-05 21:37 43.82846 -108.68993 41050 ft 539 kts 120°
2026-05-05 21:38 43.79064 -108.59989 41037 ft 542 kts 116°
2026-05-05 21:38 43.76045 -108.50455 41030 ft 541 kts 110°
2026-05-05 21:39 43.72902 -108.40997 41031 ft 542 kts 116°
2026-05-05 21:39 43.69615 -108.31628 41024 ft 542 kts 113°
2026-05-05 21:40 43.66483 -108.22207 41037 ft 542 kts 115°
2026-05-05 21:40 43.63188 -108.12833 41039 ft 542 kts 114°
2026-05-05 21:41 43.59999 -108.03396 41027 ft 542 kts 115°
2026-05-05 21:41 43.56717 -107.94029 41011 ft 542 kts 115°
2026-05-05 21:42 43.53497 -107.84652 41010 ft 541 kts 115°
2026-05-05 21:42 43.50225 -107.75312 41011 ft 541 kts 115°
2026-05-05 21:43 43.46982 -107.65985 41008 ft 538 kts 115°
2026-05-05 21:43 43.43720 -107.56697 41019 ft 539 kts 115°
2026-05-05 21:44 43.40461 -107.47413 41026 ft 539 kts 115°
2026-05-05 21:44 43.37187 -107.38136 41054 ft 539 kts 116°
2026-05-05 21:45 43.33915 -107.28891 41062 ft 538 kts 116°
2026-05-05 21:45 43.30637 -107.19658 41046 ft 538 kts 116°
2026-05-05 21:46 43.27355 -107.10450 41069 ft 537 kts 116°
2026-05-05 21:46 43.24063 -107.01240 41074 ft 540 kts 117°
2026-05-05 21:47 43.20749 -106.92000 41087 ft 539 kts 117°
2026-05-05 21:47 43.17431 -106.82780 41069 ft 539 kts 117°
2026-05-05 21:48 43.14103 -106.73562 41041 ft 539 kts 117°
2026-05-05 21:48 43.10787 -106.64408 41040 ft 543 kts 118°
2026-05-05 21:49 43.07430 -106.55172 41029 ft 542 kts 118°
2026-05-05 21:49 43.04065 -106.45945 41028 ft 542 kts 118°
2026-05-05 21:50 43.00686 -106.36709 41023 ft 545 kts 118°
2026-05-05 21:50 42.97279 -106.27427 41044 ft 547 kts 118°
2026-05-05 21:51 42.93860 -106.18141 41039 ft 547 kts 118°
2026-05-05 21:51 42.90433 -106.08868 41044 ft 547 kts 118°
2026-05-05 21:52 42.85263 -105.94933 41051 ft 549 kts 118°
2026-05-05 21:53 42.81809 -105.85662 41050 ft 549 kts 118°
2026-05-05 21:53 42.78347 -105.76401 41049 ft 549 kts 118°
2026-05-05 21:54 42.74878 -105.67149 41042 ft 549 kts 118°
2026-05-05 21:54 42.71435 -105.57996 41030 ft 546 kts 119°
2026-05-05 21:55 42.67967 -105.48812 41025 ft 546 kts 119°
2026-05-05 21:55 42.64490 -105.39629 41026 ft 546 kts 119°
2026-05-05 21:56 42.61009 -105.30465 41031 ft 546 kts 119°
2026-05-05 21:56 42.57523 -105.21318 41026 ft 545 kts 120°
2026-05-05 21:57 42.54034 -105.12193 41035 ft 545 kts 120°
2026-05-05 21:57 42.50538 -105.03076 41044 ft 545 kts 120°
2026-05-05 21:58 42.47034 -104.93972 41031 ft 545 kts 120°
2026-05-05 21:58 42.43513 -104.84850 41021 ft 548 kts 121°
2026-05-05 21:59 42.39985 -104.75738 41015 ft 547 kts 121°
2026-05-05 21:59 42.36447 -104.66631 41011 ft 546 kts 121°
2026-05-05 22:00 42.32903 -104.57536 41011 ft 547 kts 121°
2026-05-05 22:00 42.29352 -104.48451 41009 ft 547 kts 121°
2026-05-05 22:01 42.25774 -104.39329 41019 ft 549 kts 122°
2026-05-05 22:01 42.22220 -104.30292 41008 ft 549 kts 122°
2026-05-05 22:02 42.18631 -104.21199 41013 ft 549 kts 122°
2026-05-05 22:02 42.15027 -104.12094 41004 ft 551 kts 122°
2026-05-05 22:03 42.11407 -104.02979 40985 ft 552 kts 122°
2026-05-05 22:03 42.07780 -103.93872 40992 ft 552 kts 122°
2026-05-05 22:04 42.04167 -103.84831 41010 ft 552 kts 122°
2026-05-05 22:04 42.00513 -103.75713 41001 ft 553 kts 122°
2026-05-05 22:05 41.96859 -103.66625 41011 ft 553 kts 122°
2026-05-05 22:05 41.93196 -103.57545 41012 ft 553 kts 123°
2026-05-05 22:06 41.89503 -103.48501 41009 ft 551 kts 126°
2026-05-05 22:06 41.85096 -103.40176 41009 ft 546 kts 132°
2026-05-05 22:07 41.80602 -103.31953 41000 ft 547 kts 130°
2026-05-05 22:07 41.76157 -103.23695 40997 ft 546 kts 132°
2026-05-05 22:08 41.71646 -103.15485 40992 ft 546 kts 131°
2026-05-05 22:08 41.67938 -103.08635 40992 ft 547 kts 131°
2026-05-05 22:09 41.62702 -102.99118 40979 ft 546 kts 132°
2026-05-05 22:09 41.58219 -102.90925 40979 ft 546 kts 132°
2026-05-05 22:10 41.54442 -102.84085 40983 ft 546 kts 132°
2026-05-05 22:10 41.49939 -102.75915 40992 ft 546 kts 132°
2026-05-05 22:11 41.45453 -102.67813 40994 ft 546 kts 133°
2026-05-05 22:11 41.40940 -102.59677 41012 ft 546 kts 133°
2026-05-05 22:12 41.36420 -102.51553 41011 ft 545 kts 133°
2026-05-05 22:12 41.31899 -102.43447 41026 ft 545 kts 133°
2026-05-05 22:13 41.27371 -102.35351 41020 ft 546 kts 133°
2026-05-05 22:13 41.22826 -102.27246 41037 ft 546 kts 133°
2026-05-05 22:14 41.18288 -102.19175 41033 ft 545 kts 133°
2026-05-05 22:14 41.13820 -102.11233 42126 ft 522 kts 133°
2026-05-05 22:14 41.11661 -102.07390 43038 ft 508 kts 133°
2026-05-05 22:15 41.09559 -102.03703 43355 ft 509 kts 134°
2026-05-05 22:15 41.07424 -101.99960 43715 ft 509 kts 133°
2026-05-05 22:15 41.05302 -101.96201 44098 ft 509 kts 133°
2026-05-05 22:15 41.03183 -101.92447 44481 ft 509 kts 133°
2026-05-05 22:16 41.01053 -101.88705 44834 ft 509 kts 133°
2026-05-05 22:16 40.98918 -101.84968 45022 ft 512 kts 133°
2026-05-05 22:16 40.96755 -101.81176 45007 ft 520 kts 133°
2026-05-05 22:17 40.92353 -101.73447 45020 ft 532 kts 133°
2026-05-05 22:17 40.87836 -101.65560 45021 ft 540 kts 133°
2026-05-05 22:18 40.83299 -101.57640 45020 ft 541 kts 133°
2026-05-05 22:18 40.78741 -101.49721 45029 ft 541 kts 133°
2026-05-05 22:19 40.74182 -101.41808 45040 ft 541 kts 133°
2026-05-05 22:19 40.69619 -101.33918 45038 ft 541 kts 133°
2026-05-05 22:20 40.65042 -101.26019 45035 ft 545 kts 133°
2026-05-05 22:20 40.60444 -101.18100 45036 ft 543 kts 133°
2026-05-05 22:21 40.55835 -101.10195 45051 ft 547 kts 133°
2026-05-05 22:21 40.51212 -101.02270 45055 ft 546 kts 133°
2026-05-05 22:22 40.46611 -100.94417 45050 ft 546 kts 133°
2026-05-05 22:22 40.42229 -100.86230 45035 ft 549 kts 129°
2026-05-05 22:23 40.37980 -100.77884 45038 ft 553 kts 130°
2026-05-05 22:23 40.33637 -100.69545 45033 ft 553 kts 129°
2026-05-05 22:24 40.29341 -100.61199 45030 ft 553 kts 130°
2026-05-05 22:24 40.25008 -100.52887 45030 ft 552 kts 130°
2026-05-05 22:25 40.20690 -100.44567 45029 ft 552 kts 130°
2026-05-05 22:25 40.16381 -100.36328 45032 ft 552 kts 130°
2026-05-05 22:26 40.12046 -100.28033 45026 ft 552 kts 130°
2026-05-05 22:26 40.07704 -100.19764 45052 ft 552 kts 130°
2026-05-05 22:27 40.03370 -100.11518 45039 ft 551 kts 130°
2026-05-05 22:27 39.99017 -100.03273 45028 ft 551 kts 130°
2026-05-05 22:28 39.94665 -99.95037 45024 ft 551 kts 130°
2026-05-05 22:28 39.90304 -99.86816 45021 ft 551 kts 130°
2026-05-05 22:29 39.85944 -99.78611 45019 ft 551 kts 131°
2026-05-05 22:29 39.81582 -99.70426 45022 ft 549 kts 131°
2026-05-05 22:30 39.77222 -99.62269 45028 ft 549 kts 131°
2026-05-05 22:30 39.72886 -99.54173 45033 ft 549 kts 131°
2026-05-05 22:31 39.68514 -99.46035 45024 ft 549 kts 131°
2026-05-05 22:31 39.64136 -99.37903 45011 ft 549 kts 132°
2026-05-05 22:32 39.59772 -99.29816 45017 ft 547 kts 132°
2026-05-05 22:32 39.55402 -99.21747 45017 ft 547 kts 132°
2026-05-05 22:33 39.51029 -99.13685 45018 ft 547 kts 132°
2026-05-05 22:33 39.46643 -99.05624 45021 ft 548 kts 133°
2026-05-05 22:34 39.42250 -98.97562 45026 ft 547 kts 133°
2026-05-05 22:34 39.37882 -98.89582 45026 ft 547 kts 133°
2026-05-05 22:35 39.33488 -98.81558 45024 ft 547 kts 133°
2026-05-05 22:35 39.29085 -98.73549 45024 ft 547 kts 133°
2026-05-05 22:36 39.24674 -98.65539 44994 ft 546 kts 133°
2026-05-05 22:36 39.20275 -98.57573 45019 ft 545 kts 133°
2026-05-05 22:37 39.15868 -98.49613 45012 ft 545 kts 133°
2026-05-05 22:37 39.11459 -98.41668 45015 ft 545 kts 133°
2026-05-05 22:38 39.07040 -98.33726 45023 ft 545 kts 133°
2026-05-05 22:38 39.02618 -98.25793 45011 ft 545 kts 134°
2026-05-05 22:39 38.98185 -98.17870 45014 ft 545 kts 134°
2026-05-05 22:39 38.93757 -98.09967 45012 ft 545 kts 134°
2026-05-05 22:40 38.89323 -98.02077 45013 ft 545 kts 134°
2026-05-05 22:40 38.84906 -97.94233 44974 ft 546 kts 134°
2026-05-05 22:41 38.80445 -97.86332 44994 ft 546 kts 135°
2026-05-05 22:41 38.75981 -97.78443 44989 ft 546 kts 135°
2026-05-05 22:42 38.71516 -97.70575 44988 ft 546 kts 135°
2026-05-05 22:42 38.67044 -97.62711 44992 ft 546 kts 135°
2026-05-05 22:43 38.62556 -97.54843 44995 ft 551 kts 135°
2026-05-05 22:43 38.58024 -97.46906 44990 ft 553 kts 135°
2026-05-05 22:44 38.53479 -97.38977 44996 ft 553 kts 135°
2026-05-05 22:44 38.48962 -97.31110 44987 ft 553 kts 135°
2026-05-05 22:45 38.44409 -97.23204 44982 ft 552 kts 135°
2026-05-05 22:45 38.39678 -97.15549 44981 ft 550 kts 137°
2026-05-05 22:46 38.34932 -97.07906 44981 ft 550 kts 137°
2026-05-05 22:46 38.30176 -97.00287 44980 ft 549 kts 138°
2026-05-05 22:47 38.25418 -96.92673 44980 ft 550 kts 137°
2026-05-05 22:47 38.20654 -96.85070 44979 ft 549 kts 138°
2026-05-05 22:48 38.15891 -96.77487 44975 ft 549 kts 138°
2026-05-05 22:48 38.11117 -96.69903 44975 ft 549 kts 138°
2026-05-05 22:49 38.06343 -96.62338 44978 ft 549 kts 138°
2026-05-05 22:49 38.01559 -96.54771 44978 ft 549 kts 138°
2026-05-05 22:50 37.96765 -96.47213 44971 ft 551 kts 138°
2026-05-05 22:50 37.91950 -96.39630 44973 ft 552 kts 138°
2026-05-05 22:51 37.87158 -96.32106 44968 ft 552 kts 138°
2026-05-05 22:51 37.82323 -96.24532 44968 ft 552 kts 138°
2026-05-05 22:52 37.77495 -96.16985 44971 ft 552 kts 139°
2026-05-05 22:52 37.72642 -96.09417 44969 ft 553 kts 139°
2026-05-05 22:53 37.67785 -96.01862 44968 ft 554 kts 138°
2026-05-05 22:53 37.62930 -95.94326 44967 ft 554 kts 139°
2026-05-05 22:54 37.58070 -95.86799 44962 ft 553 kts 139°
2026-05-05 22:54 37.53240 -95.79334 44954 ft 554 kts 139°
2026-05-05 22:55 37.48371 -95.71829 44940 ft 553 kts 139°
2026-05-05 22:55 37.43496 -95.64331 44930 ft 553 kts 139°
2026-05-05 22:56 37.38613 -95.56838 44928 ft 553 kts 139°
2026-05-05 22:56 37.33728 -95.49357 44916 ft 552 kts 139°
2026-05-05 22:57 37.28875 -95.41944 44936 ft 554 kts 139°
2026-05-05 22:57 37.23976 -95.34476 44923 ft 554 kts 139°
2026-05-05 22:58 37.19066 -95.27010 44910 ft 556 kts 139°
2026-05-05 22:58 37.14143 -95.19537 44910 ft 555 kts 139°
2026-05-05 22:59 37.09218 -95.12083 44910 ft 557 kts 140°
2026-05-05 22:59 37.05112 -95.05875 44911 ft 556 kts 140°
2026-05-05 23:00 36.97688 -94.94692 44905 ft 556 kts 140°
2026-05-05 23:00 36.92723 -94.87228 44907 ft 558 kts 140°
2026-05-05 23:01 36.87754 -94.79776 44909 ft 557 kts 140°
2026-05-05 23:01 36.82772 -94.72326 44903 ft 559 kts 140°
2026-05-05 23:02 36.77785 -94.64881 44890 ft 559 kts 140°
2026-05-05 23:02 36.72825 -94.57496 44877 ft 558 kts 140°
2026-05-05 23:03 36.67823 -94.50062 44872 ft 560 kts 140°
2026-05-05 23:03 36.62789 -94.42596 44875 ft 560 kts 140°
2026-05-05 23:04 36.57806 -94.35225 44867 ft 559 kts 140°
2026-05-05 23:04 36.52788 -94.27818 44873 ft 559 kts 140°
2026-05-05 23:05 36.47773 -94.20431 44869 ft 559 kts 140°
2026-05-05 23:05 36.42736 -94.13030 44818 ft 561 kts 140°
2026-05-05 23:06 36.37716 -94.05663 44872 ft 559 kts 140°
2026-05-05 23:06 36.32685 -93.98307 44869 ft 559 kts 140°
2026-05-05 23:07 36.27654 -93.90958 44852 ft 559 kts 140°
2026-05-05 23:07 36.22644 -93.83663 44821 ft 559 kts 140°
2026-05-05 23:08 36.17596 -93.76322 44794 ft 562 kts 140°
2026-05-05 23:08 36.12511 -93.68943 44796 ft 563 kts 140°
2026-05-05 23:09 36.07462 -93.61531 44775 ft 567 kts 136°
2026-05-05 23:09 36.02708 -93.53732 44795 ft 568 kts 135°
2026-05-05 23:10 35.97931 -93.45976 44778 ft 567 kts 136°
2026-05-05 23:10 35.93156 -93.38224 44788 ft 568 kts 136°
2026-05-05 23:11 35.88376 -93.30473 44774 ft 567 kts 136°
2026-05-05 23:11 35.83577 -93.22727 44777 ft 568 kts 136°
2026-05-05 23:12 35.78792 -93.14999 44782 ft 567 kts 136°
2026-05-05 23:12 35.73992 -93.07286 44779 ft 567 kts 136°
2026-05-05 23:13 35.69193 -92.99573 44771 ft 569 kts 136°
2026-05-05 23:13 35.64375 -92.91857 44769 ft 568 kts 136°
2026-05-05 23:14 35.59583 -92.84198 44772 ft 568 kts 136°
2026-05-05 23:14 35.54753 -92.76496 44781 ft 568 kts 136°
2026-05-05 23:15 35.49924 -92.68810 44789 ft 569 kts 136°
2026-05-05 23:15 35.45088 -92.61129 44791 ft 566 kts 136°
2026-05-05 23:16 35.40262 -92.53489 44788 ft 567 kts 136°
2026-05-05 23:16 35.35430 -92.45847 44782 ft 567 kts 136°
2026-05-05 23:17 35.30593 -92.38218 44779 ft 567 kts 136°
2026-05-05 23:17 35.25758 -92.30608 44775 ft 567 kts 136°
2026-05-05 23:18 35.20908 -92.22991 44786 ft 567 kts 136°
2026-05-05 23:18 35.16052 -92.15382 44786 ft 567 kts 136°
2026-05-05 23:19 35.11219 -92.07825 44786 ft 568 kts 136°
2026-05-05 23:19 35.06355 -92.00234 44785 ft 567 kts 136°
2026-05-05 23:20 35.01489 -91.92659 44789 ft 567 kts 136°
2026-05-05 23:20 34.96606 -91.85073 44782 ft 568 kts 136°
2026-05-05 23:21 34.91721 -91.77497 44792 ft 568 kts 136°
2026-05-05 23:21 34.86828 -91.69932 44795 ft 568 kts 136°
2026-05-05 23:22 34.81937 -91.62380 44799 ft 568 kts 136°
2026-05-05 23:22 34.76909 -91.55011 44796 ft 565 kts 139°
2026-05-05 23:23 34.71846 -91.47774 44771 ft 565 kts 138°
2026-05-05 23:23 34.66761 -91.40511 44798 ft 564 kts 138°
2026-05-05 23:24 34.61635 -91.33220 44799 ft 564 kts 138°
2026-05-05 23:24 34.56574 -91.26020 44799 ft 564 kts 138°
2026-05-05 23:25 34.51470 -91.18787 44809 ft 564 kts 138°
2026-05-05 23:25 34.46361 -91.11553 44782 ft 566 kts 138°
2026-05-05 23:26 34.41236 -91.04316 44825 ft 565 kts 138°
2026-05-05 23:26 34.36108 -90.97088 44824 ft 565 kts 138°
2026-05-05 23:27 34.31006 -90.89913 44840 ft 565 kts 138°
2026-05-05 23:27 34.25875 -90.82711 44844 ft 565 kts 138°
2026-05-05 23:28 34.20735 -90.75510 44826 ft 565 kts 138°
2026-05-05 23:28 34.15577 -90.68299 44849 ft 567 kts 138°
2026-05-05 23:29 34.10414 -90.61095 44854 ft 567 kts 138°
2026-05-05 23:29 34.05244 -90.53897 44854 ft 567 kts 138°
2026-05-05 23:30 34.00074 -90.46714 44851 ft 567 kts 138°
2026-05-05 23:30 33.94901 -90.39540 44823 ft 567 kts 138°
2026-05-05 23:31 33.89740 -90.32397 44855 ft 564 kts 138°
2026-05-05 23:31 33.84614 -90.25321 44859 ft 564 kts 138°
2026-05-05 23:32 33.79453 -90.18205 44858 ft 564 kts 138°
2026-05-05 23:32 33.74286 -90.11099 44869 ft 564 kts 138°
2026-05-05 23:33 33.69118 -90.04003 44872 ft 564 kts 138°
2026-05-05 23:33 33.63964 -89.96938 44885 ft 562 kts 138°
2026-05-05 23:34 33.58800 -89.89882 44888 ft 562 kts 138°
2026-05-05 23:34 33.53636 -89.82830 44887 ft 562 kts 138°
2026-05-05 23:35 33.48503 -89.75841 44884 ft 562 kts 138°
2026-05-05 23:35 33.43332 -89.68811 44892 ft 562 kts 138°
2026-05-05 23:36 33.38155 -89.61788 44889 ft 562 kts 138°
2026-05-05 23:36 33.32978 -89.54776 44879 ft 562 kts 138°
2026-05-05 23:37 33.27800 -89.47779 44889 ft 562 kts 138°
2026-05-05 23:37 33.22620 -89.40792 44889 ft 562 kts 138°
2026-05-05 23:38 33.17437 -89.33814 44912 ft 562 kts 138°
2026-05-05 23:38 33.12251 -89.26846 44918 ft 562 kts 138°
2026-05-05 23:39 33.07049 -89.19870 44937 ft 564 kts 138°
2026-05-05 23:39 33.01824 -89.12873 44902 ft 564 kts 138°
2026-05-05 23:40 32.96600 -89.05898 44913 ft 564 kts 138°
2026-05-05 23:40 32.91377 -88.98933 44934 ft 564 kts 139°
2026-05-05 23:41 32.86157 -88.91986 44962 ft 562 kts 138°
2026-05-05 23:41 32.80966 -88.85092 44963 ft 563 kts 138°
2026-05-05 23:42 32.75734 -88.78155 44962 ft 564 kts 138°
2026-05-05 23:42 32.70494 -88.71222 44952 ft 564 kts 138°
2026-05-05 23:43 32.65256 -88.64304 44947 ft 563 kts 138°
2026-05-05 23:43 32.60013 -88.57393 44936 ft 562 kts 138°
2026-05-05 23:44 32.54696 -88.50642 44951 ft 559 kts 141°
2026-05-05 23:44 32.49313 -88.43955 44961 ft 562 kts 140°
2026-05-05 23:45 32.43900 -88.37263 44961 ft 562 kts 140°
2026-05-05 23:45 32.38518 -88.30619 44965 ft 562 kts 140°
2026-05-05 23:46 32.33103 -88.23943 44948 ft 562 kts 140°
2026-05-05 23:46 32.27697 -88.17293 44964 ft 561 kts 140°
2026-05-05 23:47 32.23160 -88.11721 44965 ft 561 kts 140°
2026-05-05 23:47 32.17770 -88.05115 44970 ft 565 kts 140°
2026-05-05 23:48 32.12315 -87.98433 44965 ft 564 kts 140°
2026-05-05 23:48 32.06856 -87.91771 44971 ft 564 kts 140°
2026-05-05 23:49 32.01414 -87.85128 44972 ft 563 kts 140°
2026-05-05 23:49 31.95967 -87.78506 44972 ft 562 kts 140°
2026-05-05 23:50 31.90525 -87.71890 44968 ft 562 kts 140°
2026-05-05 23:50 31.85066 -87.65272 44981 ft 563 kts 140°
2026-05-05 23:51 31.79605 -87.58661 44983 ft 563 kts 140°
2026-05-05 23:51 31.74192 -87.52118 44976 ft 561 kts 140°
2026-05-05 23:52 31.68742 -87.45548 44977 ft 561 kts 140°
2026-05-05 23:52 31.63287 -87.38978 44974 ft 561 kts 140°
2026-05-05 23:53 31.57831 -87.32422 44986 ft 561 kts 140°
2026-05-05 23:53 31.52364 -87.25861 44987 ft 563 kts 140°
2026-05-05 23:54 31.46891 -87.19307 44986 ft 561 kts 140°
2026-05-05 23:54 31.41421 -87.12768 45010 ft 561 kts 140°
2026-05-05 23:55 31.35945 -87.06234 45006 ft 562 kts 140°
2026-05-05 23:55 31.30474 -86.99717 45003 ft 561 kts 140°
2026-05-05 23:56 31.24999 -86.93206 45016 ft 563 kts 140°
2026-05-05 23:56 31.19490 -86.86665 44988 ft 564 kts 139°
2026-05-05 23:57 31.13995 -86.80155 45005 ft 563 kts 140°
2026-05-05 23:57 31.08487 -86.73641 45015 ft 563 kts 139°
2026-05-05 23:58 31.02982 -86.67139 45018 ft 563 kts 140°
2026-05-05 23:58 30.97477 -86.60651 45026 ft 563 kts 140°
2026-05-05 23:59 30.91962 -86.54161 45054 ft 565 kts 139°
2026-05-05 23:59 30.86437 -86.47670 45053 ft 564 kts 139°
2026-05-06 00:00 30.80944 -86.41231 45049 ft 564 kts 139°
2026-05-06 00:00 30.75411 -86.34752 45044 ft 564 kts 139°
2026-05-06 00:01 30.69879 -86.28289 45022 ft 563 kts 139°
2026-05-06 00:01 30.64343 -86.21832 45034 ft 564 kts 139°
2026-05-06 00:02 30.58804 -86.15381 45034 ft 564 kts 139°
2026-05-06 00:02 30.53263 -86.08940 45040 ft 564 kts 139°
2026-05-06 00:03 30.47711 -86.02497 45033 ft 564 kts 139°
2026-05-06 00:03 30.42198 -85.96109 45029 ft 564 kts 139°
2026-05-06 00:04 30.36650 -85.89692 45028 ft 564 kts 139°
2026-05-06 00:04 30.31098 -85.83280 45030 ft 561 kts 139°
2026-05-06 00:05 30.22787 -85.73706 45041 ft 562 kts 139°
2026-05-06 00:06 30.17240 -85.67323 45030 ft 562 kts 139°
2026-05-06 00:06 30.12057 -85.60514 45031 ft 565 kts 133°
2026-05-06 00:07 30.06950 -85.53617 45037 ft 565 kts 134°
2026-05-06 00:07 30.01794 -85.46780 45025 ft 563 kts 134°
2026-05-06 00:08 29.96691 -85.39923 45025 ft 564 kts 134°
2026-05-06 00:08 29.91535 -85.33092 45013 ft 564 kts 134°
2026-05-06 00:09 29.86412 -85.26252 45031 ft 564 kts 134°
2026-05-06 00:09 29.81260 -85.19431 45048 ft 564 kts 134°
2026-05-06 00:10 29.76150 -85.12646 45055 ft 564 kts 134°
2026-05-06 00:10 29.71001 -85.05841 45040 ft 562 kts 134°
2026-05-06 00:11 29.65862 -84.99048 45053 ft 563 kts 134°
2026-05-06 00:11 29.60710 -84.92259 45052 ft 563 kts 134°
2026-05-06 00:12 29.55561 -84.85477 45044 ft 563 kts 134°
2026-05-06 00:12 29.50410 -84.78710 45049 ft 563 kts 134°
2026-05-06 00:13 29.45255 -84.71945 45057 ft 563 kts 134°
2026-05-06 00:13 29.40104 -84.65198 45052 ft 561 kts 133°
2026-05-06 00:14 29.34939 -84.58446 45053 ft 562 kts 133°
2026-05-06 00:14 29.29807 -84.51747 45057 ft 562 kts 133°
2026-05-06 00:15 29.24641 -84.45015 45051 ft 562 kts 133°
2026-05-06 00:15 29.19472 -84.38289 45052 ft 562 kts 133°
2026-05-06 00:16 29.14299 -84.31569 45057 ft 562 kts 134°
2026-05-06 00:16 29.09127 -84.24862 45043 ft 562 kts 133°
2026-05-06 00:17 29.03953 -84.18164 45042 ft 562 kts 133°
2026-05-06 00:17 28.98776 -84.11473 45045 ft 562 kts 133°
2026-05-06 00:18 28.93599 -84.04792 45042 ft 562 kts 133°
2026-05-06 00:18 28.88413 -83.98112 45047 ft 562 kts 133°
2026-05-06 00:19 28.83226 -83.91441 45045 ft 562 kts 133°
2026-05-06 00:19 28.78038 -83.84778 45045 ft 561 kts 133°
2026-05-06 00:20 28.72849 -83.78128 45041 ft 561 kts 133°
2026-05-06 00:20 28.67697 -83.71532 45041 ft 561 kts 133°
2026-05-06 00:21 28.62508 -83.64901 45041 ft 561 kts 133°
2026-05-06 00:21 28.57315 -83.58276 45042 ft 561 kts 133°
2026-05-06 00:22 28.52113 -83.51650 45051 ft 561 kts 133°
2026-05-06 00:22 28.46913 -83.45036 45040 ft 560 kts 133°
2026-05-06 00:23 28.41707 -83.38428 45038 ft 561 kts 133°
2026-05-06 00:23 28.36503 -83.31830 45041 ft 561 kts 133°
2026-05-06 00:24 28.31296 -83.25240 45039 ft 560 kts 133°
2026-05-06 00:24 28.26084 -83.18653 45039 ft 560 kts 133°
2026-05-06 00:25 28.20873 -83.12079 45046 ft 561 kts 133°
2026-05-06 00:25 28.15659 -83.05511 45044 ft 560 kts 133°
2026-05-06 00:26 28.10443 -82.98952 45047 ft 560 kts 133°
2026-05-06 00:26 28.05129 -82.92600 45030 ft 558 kts 141°
2026-05-06 00:27 27.98831 -82.87540 45051 ft 554 kts 152°
2026-05-06 00:27 27.92406 -82.82820 44280 ft 546 kts 147°
2026-05-06 00:27 27.89360 -82.80322 43576 ft 537 kts 147°
2026-05-06 00:28 27.86309 -82.77948 42875 ft 528 kts 150°
2026-05-06 00:28 27.83245 -82.75705 42183 ft 523 kts 150°
2026-05-06 00:28 27.80203 -82.73424 41478 ft 524 kts 148°
2026-05-06 00:28 27.77202 -82.71068 40792 ft 527 kts 148°
2026-05-06 00:29 27.74172 -82.68708 40097 ft 530 kts 149°
2026-05-06 00:29 27.71096 -82.66392 39399 ft 532 kts 149°
2026-05-06 00:29 27.68007 -82.64070 38697 ft 534 kts 149°
2026-05-06 00:29 27.64933 -82.61709 37943 ft 535 kts 148°
2026-05-06 00:30 27.61858 -82.59336 37240 ft 535 kts 148°
2026-05-06 00:30 27.58768 -82.56989 36537 ft 536 kts 149°